TimePST,TemperatureF,Dew PointF,Humidity,Sea Level PressureIn,VisibilityMPH,Wind Direction,Wind SpeedMPH,Gust SpeedMPH,PrecipitationIn,Events,Conditions,WindDirDegrees,DateUTC
12:41 AM,46.4,39.2,76,29.91,10.0,WSW,9.2,-,0.00,,Overcast,240,2012-12-05 08:41:00
12:56 AM,46.0,41.0,83,29.91,10.0,NNW,5.8,-,0.00,Rain,Light Rain,330,2012-12-05 08:56:00
1:56 AM,43.0,41.0,93,29.92,10.0,NNE,3.5,-,0.00,,Mostly Cloudy,20,2012-12-05 09:56:00
2:56 AM,43.0,37.0,80,29.96,10.0,North,10.4,-,N/A,,Overcast,10,2012-12-05 10:56:00
3:10 AM,42.8,35.6,76,29.96,10.0,North,6.9,-,N/A,,Overcast,360,2012-12-05 11:10:00
3:56 AM,41.0,34.0,76,29.98,10.0,North,8.1,-,N/A,,Mostly Cloudy,350,2012-12-05 11:56:00
4:56 AM,39.9,34.0,79,30.01,10.0,ESE,3.5,-,N/A,,Overcast,110,2012-12-05 12:56:00
6:56 AM,35.1,30.9,85,30.05,10.0,Calm,Calm,-,N/A,,Scattered Clouds,0,2012-12-05 14:56:00
7:56 AM,37.9,32.0,79,30.09,10.0,NNW,4.6,-,N/A,,Scattered Clouds,340,2012-12-05 15:56:00
8:56 AM,41.0,30.9,67,30.10,10.0,NE,4.6,-,N/A,,Mostly Cloudy,50,2012-12-05 16:56:00
8:58 AM,39.2,30.2,70,30.09,10.0,Calm,Calm,-,N/A,,Scattered Clouds,0,2012-12-05 16:58:00
9:56 AM,43.0,30.9,62,30.12,10.0,NNE,6.9,-,N/A,,Clear,20,2012-12-05 17:56:00
10:56 AM,44.1,30.9,60,30.12,10.0,NNE,6.9,-,N/A,,Clear,20,2012-12-05 18:56:00
11:56 AM,46.0,30.9,56,30.11,10.0,North,4.6,-,N/A,,Clear,10,2012-12-05 19:56:00
12:56 PM,46.9,30.9,54,30.10,10.0,NNW,4.6,-,N/A,,Partly Cloudy,330,2012-12-05 20:56:00
1:56 PM,48.0,30.9,52,30.11,10.0,NNE,5.8,-,N/A,,Scattered Clouds,30,2012-12-05 21:56:00
2:56 PM,45.0,30.0,56,30.11,10.0,North,8.1,-,N/A,,Partly Cloudy,10,2012-12-05 22:56:00
3:56 PM,43.0,30.9,62,30.13,10.0,North,6.9,-,N/A,,Partly Cloudy,350,2012-12-05 23:56:00
4:56 PM,39.0,30.0,70,30.16,10.0,NNW,8.1,-,N/A,,Partly Cloudy,340,2012-12-06 00:56:00
5:56 PM,34.0,28.0,79,30.18,10.0,North,4.6,-,N/A,,Clear,10,2012-12-06 01:56:00
6:56 PM,30.9,28.0,89,30.19,10.0,South,3.5,-,N/A,,Mostly Cloudy,180,2012-12-06 02:56:00
7:56 PM,30.0,27.0,88,30.19,10.0,Calm,Calm,-,N/A,,Clear,0,2012-12-06 03:56:00
8:56 PM,30.9,28.0,89,30.20,10.0,WSW,3.5,-,N/A,,Mostly Cloudy,250,2012-12-06 04:56:00
9:56 PM,30.9,28.0,89,30.20,10.0,West,4.6,-,N/A,,Overcast,280,2012-12-06 05:56:00
10:56 PM,27.0,25.0,92,30.21,10.0,Calm,Calm,-,N/A,,Clear,0,2012-12-06 06:56:00
11:56 PM,26.1,24.1,92,30.21,10.0,Calm,Calm,-,N/A,,Clear,0,2012-12-06 07:56:00